| time (UTC) | temp F | wind direction | speed knots | gust knots | rain 1hr in | rain 24hr in | rain mn in | humidity % | barometer mb |
| 20260505040603 | 47 | 333 | 1.7 | 2.6 | 0.00 | 0.00 | 0.00 | 54 | 1008.5 |
| 20260505035603 | 48 | 332 | 1.7 | 5.2 | 0.00 | 0.00 | 0.00 | 53 | 1008.5 |
| 20260505035103 | 48 | 331 | 0.9 | 2.6 | 0.00 | 0.00 | 0.00 | 53 | 1008.5 |
| 20260505034603 | 48 | 329 | 1.7 | 2.6 | 0.00 | 0.00 | 0.00 | 52 | 1008.5 |
| 20260505034103 | 48 | 329 | 1.7 | 4.3 | 0.00 | 0.00 | 0.00 | 52 | 1008.5 |
| 20260505033603 | 48 | 337 | 2.6 | 4.3 | 0.00 | 0.00 | 0.00 | 51 | 1008.5 |
| 20260505033103 | 48 | 338 | 1.7 | 2.6 | 0.00 | 0.00 | 0.00 | 51 | 1008.5 |
| 20260505032603 | 48 | 336 | 2.6 | 4.3 | 0.00 | 0.00 | 0.00 | 51 | 1008.5 |
| 20260505032103 | 49 | 328 | 2.6 | 4.3 | 0.00 | 0.00 | 0.00 | 51 | 1008.5 |
| 20260505031603 | 49 | 316 | 1.7 | 4.3 | 0.00 | 0.00 | 0.00 | 51 | 1008.5 |
| 20260505031103 | 49 | 330 | 2.6 | 5.2 | 0.00 | 0.00 | 0.00 | 51 | 1008.5 |
| 20260505030603 | 49 | 332 | 4.3 | 7.0 | 0.00 | 0.00 | 0.00 | 50 | 1008.5 |
| 20260505025603 | 49 | 325 | 2.6 | 7.0 | 0.00 | 0.00 | 0.00 | 50 | 1007.8 |
| 20260505025103 | 49 | 336 | 1.7 | 7.0 | 0.00 | 0.00 | 0.00 | 50 | 1007.8 |
| 20260505024603 | 49 | 309 | 2.6 | 5.2 | 0.00 | 0.00 | 0.00 | 50 | 1007.8 |
| 20260505024103 | 49 | 306 | 1.7 | 2.6 | 0.00 | 0.00 | 0.00 | 51 | 1007.8 |
| 20260505023603 | 50 | 328 | 2.6 | 4.3 | 0.00 | 0.00 | 0.00 | 50 | 1007.8 |
| 20260505023103 | 50 | 332 | 4.3 | 7.0 | 0.00 | 0.00 | 0.00 | 50 | 1007.8 |
| 20260505022603 | 50 | 327 | 2.6 | 7.0 | 0.00 | 0.00 | 0.00 | 50 | 1007.8 |
| 20260505022103 | 50 | 330 | 3.5 | 7.0 | 0.00 | 0.00 | 0.00 | 50 | 1007.8 |
| 20260505021603 | 50 | 333 | 4.3 | 8.7 | 0.00 | 0.00 | 0.00 | 49 | 1007.8 |
| 20260505021103 | 50 | 322 | 5.2 | 8.7 | 0.00 | 0.00 | 0.00 | 49 | 1007.8 |
| 20260505020604 | 50 | 325 | 5.2 | 8.7 | 0.00 | 0.00 | 0.00 | 49 | 1007.8 |
| 20260505015603 | 50 | 324 | 5.2 | 10.4 | 0.00 | 0.00 | 0.00 | 49 | 1007.1 |
| 20260505014603 | 51 | 324 | 7.0 | 10.4 | 0.00 | 0.00 | 0.00 | 49 | 1007.1 |
| 20260505014103 | 51 | 326 | 8.7 | 13.0 | 0.00 | 0.00 | 0.00 | 48 | 1007.1 |
| 20260505013603 | 51 | 327 | 9.6 | 14.8 | 0.00 | 0.00 | 0.00 | 48 | 1007.1 |
| 20260505012603 | 51 | 324 | 8.7 | 13.9 | 0.00 | 0.00 | 0.00 | 49 | 1007.1 |
| 20260505012103 | 51 | 322 | 11.3 | 17.4 | 0.00 | 0.00 | 0.00 | 48 | 1007.1 |
| 20260505011603 | 51 | 328 | 10.4 | 14.8 | 0.00 | 0.00 | 0.00 | 48 | 1007.1 |
| 20260505010603 | 52 | 316 | 9.6 | 17.4 | 0.00 | 0.00 | 0.00 | 48 | 1007.1 |
| 20260505010103 | 52 | 315 | 10.4 | 17.4 | 0.00 | 0.00 | 0.00 | 48 | 1006.1 |
| 20260505005603 | 52 | 317 | 12.2 | 20.0 | 0.00 | 0.00 | 0.00 | 48 | 1006.1 |
| 20260505005104 | 52 | 307 | 12.2 | 18.2 | 0.00 | 0.00 | 0.00 | 48 | 1006.1 |
| 20260505004603 | 52 | 307 | 9.6 | 20.0 | 0.00 | 0.00 | 0.00 | 48 | 1006.1 |
| 20260505003603 | 52 | 321 | 13.0 | 24.3 | 0.00 | 0.00 | 0.00 | 49 | 1006.1 |
| 20260505003103 | 52 | 316 | 13.0 | 18.2 | 0.00 | 0.00 | 0.00 | 49 | 1006.1 |
| 20260505002603 | 53 | 319 | 14.8 | 20.0 | 0.00 | 0.00 | 0.00 | 50 | 1006.1 |
| 20260505002103 | 53 | 332 | 15.6 | 22.6 | 0.00 | 0.00 | 0.00 | 49 | 1006.1 |
| 20260505001103 | 54 | 342 | 13.9 | 20.0 | 0.00 | 0.00 | 0.00 | 50 | 1006.1 |
| 20260505000603 | 54 | 332 | 10.4 | 15.6 | 0.00 | 0.00 | 0.00 | 50 | 1006.1 |
| 20260504235603 | 55 | 326 | 9.6 | 18.2 | 0.00 | 0.00 | 0.00 | 46 | 1005.4 |
| 20260504235103 | 55 | 315 | 14.8 | 19.1 | 0.00 | 0.00 | 0.00 | 45 | 1005.4 |
| 20260504234603 | 55 | 330 | 11.3 | 18.2 | 0.00 | 0.00 | 0.00 | 46 | 1005.4 |
| 20260504234103 | 55 | 319 | 13.0 | 22.6 | 0.00 | 0.00 | 0.00 | 45 | 1005.4 |
| 20260504233603 | 56 | 336 | 12.2 | 18.2 | 0.00 | 0.00 | 0.00 | 45 | 1005.4 |
| 20260504233103 | 56 | 323 | 11.3 | 19.1 | 0.00 | 0.00 | 0.00 | 46 | 1005.4 |
| 20260504232603 | 55 | 316 | 10.4 | 20.9 | 0.00 | 0.00 | 0.00 | 45 | 1005.4 |
| 20260504232103 | 56 | 333 | 13.9 | 22.6 | 0.00 | 0.00 | 0.00 | 44 | 1005.4 |
| 20260504231103 | 56 | 312 | 14.8 | 20.9 | 0.00 | 0.00 | 0.00 | 44 | 1005.4 |
| 20260504230603 | 56 | 311 | 13.0 | 19.1 | 0.00 | 0.00 | 0.00 | 44 | 1005.4 |
| 20260504230103 | 56 | 304 | 12.2 | 21.7 | 0.00 | 0.00 | 0.00 | 44 | 1005.4 |
| 20260504225603 | 56 | 318 | 12.2 | 17.4 | 0.00 | 0.00 | 0.00 | 44 | 1005.4 |
| 20260504222603 | 57 | 306 | 11.3 | 20.0 | 0.00 | 0.00 | 0.00 | 42 | 1005.4 |
| 20260504222103 | 57 | 303 | 7.8 | 15.6 | 0.00 | 0.00 | 0.00 | 42 | 1005.4 |
| 20260504221603 | 57 | 314 | 12.2 | 20.0 | 0.00 | 0.00 | 0.00 | 41 | 1005.4 |
| 20260504221103 | 57 | 320 | 13.0 | 20.0 | 0.00 | 0.00 | 0.00 | 42 | 1005.4 |
| 20260504220603 | 58 | 312 | 13.9 | 20.0 | 0.00 | 0.00 | 0.00 | 42 | 1005.4 |
| 20260504215103 | 59 | 320 | 11.3 | 22.6 | 0.00 | 0.00 | 0.00 | 44 | 1004.1 |
| 20260504214603 | 59 | 322 | 10.4 | 17.4 | 0.00 | 0.00 | 0.00 | 45 | 1004.1 |
| 20260504214103 | 58 | 306 | 12.2 | 18.2 | 0.00 | 0.00 | 0.00 | 44 | 1004.1 |
| 20260504213603 | 59 | 304 | 12.2 | 20.9 | 0.00 | 0.00 | 0.00 | 43 | 1004.1 |
| 20260504213103 | 59 | 311 | 11.3 | 19.1 | 0.00 | 0.00 | 0.00 | 42 | 1004.1 |
| 20260504212603 | 59 | 314 | 13.9 | 22.6 | 0.00 | 0.00 | 0.00 | 44 | 1004.1 |
| 20260504212103 | 59 | 327 | 12.2 | 20.9 | 0.00 | 0.00 | 0.00 | 42 | 1004.1 |
| 20260504211103 | 60 | 317 | 14.8 | 22.6 | 0.00 | 0.00 | 0.00 | 41 | 1004.1 |
| 20260504210603 | 60 | 338 | 13.0 | 21.7 | 0.00 | 0.00 | 0.00 | 41 | 1004.1 |
| 20260504205603 | 61 | 313 | 11.3 | 22.6 | 0.00 | 0.00 | 0.00 | 39 | 1003.7 |
| 20260504205103 | 61 | 317 | 13.9 | 26.1 | 0.00 | 0.00 | 0.00 | 40 | 1003.7 |
| 20260504204603 | 61 | 309 | 15.6 | 22.6 | 0.00 | 0.00 | 0.00 | 39 | 1003.7 |
| 20260504204103 | 62 | 321 | 10.4 | 21.7 | 0.00 | 0.00 | 0.00 | 39 | 1003.7 |
| 20260504203604 | 61 | 314 | 12.2 | 17.4 | 0.00 | 0.00 | 0.00 | 38 | 1003.7 |
| 20260504203104 | 62 | 320 | 12.2 | 20.9 | 0.00 | 0.00 | 0.00 | 38 | 1003.7 |
| 20260504202603 | 62 | 314 | 14.8 | 20.9 | 0.00 | 0.00 | 0.00 | 37 | 1003.7 |
| 20260504202104 | 62 | 320 | 15.6 | 22.6 | 0.00 | 0.00 | 0.00 | 37 | 1003.7 |
| 20260504201603 | 62 | 320 | 14.8 | 21.7 | 0.00 | 0.00 | 0.00 | 36 | 1003.7 |
| 20260504200603 | 62 | 321 | 14.8 | 24.3 | 0.00 | 0.00 | 0.00 | 35 | 1003.7 |
| 20260504200103 | 61 | 339 | 15.6 | 24.3 | 0.00 | 0.00 | 0.00 | 34 | 1003.4 |
| 20260504195603 | 62 | 313 | 13.9 | 26.9 | 0.00 | 0.00 | 0.00 | 34 | 1003.4 |
| 20260504195103 | 63 | 322 | 15.6 | 24.3 | 0.00 | 0.00 | 0.00 | 34 | 1003.4 |
| 20260504194603 | 64 | 320 | 13.9 | 21.7 | 0.00 | 0.00 | 0.00 | 34 | 1003.4 |
| 20260504194103 | 64 | 297 | 13.9 | 22.6 | 0.00 | 0.00 | 0.00 | 36 | 1003.4 |
| 20260504193603 | 64 | 324 | 11.3 | 22.6 | 0.00 | 0.00 | 0.00 | 38 | 1003.4 |
| 20260504193103 | 64 | 325 | 12.2 | 17.4 | 0.00 | 0.00 | 0.00 | 39 | 1003.4 |
| 20260504192603 | 63 | 303 | 10.4 | 19.1 | 0.00 | 0.00 | 0.00 | 40 | 1003.4 |
| 20260504192103 | 63 | 319 | 17.4 | 26.1 | 0.00 | 0.00 | 0.00 | 39 | 1003.4 |
| 20260504191603 | 63 | 321 | 12.2 | 19.1 | 0.00 | 0.00 | 0.00 | 39 | 1003.4 |
| 20260504190603 | 63 | 323 | 14.8 | 22.6 | 0.00 | 0.00 | 0.00 | 39 | 1003.4 |
| 20260504185603 | 63 | 338 | 13.9 | 20.9 | 0.00 | 0.00 | 0.00 | 38 | 1002.7 |
| 20260504185103 | 63 | 335 | 14.8 | 21.7 | 0.00 | 0.00 | 0.00 | 38 | 1002.7 |
| 20260504184603 | 64 | 289 | 11.3 | 20.0 | 0.00 | 0.00 | 0.00 | 37 | 1002.7 |
| 20260504184103 | 64 | 306 | 17.4 | 24.3 | 0.00 | 0.00 | 0.00 | 36 | 1002.7 |
| 20260504183103 | 64 | 324 | 13.9 | 22.6 | 0.00 | 0.00 | 0.00 | 36 | 1002.7 |
| 20260504182603 | 64 | 308 | 14.8 | 20.9 | 0.00 | 0.00 | 0.00 | 36 | 1002.7 |
| 20260504182103 | 64 | 335 | 14.8 | 21.7 | 0.00 | 0.00 | 0.00 | 36 | 1002.7 |
| 20260504181603 | 64 | 347 | 12.2 | 18.2 | 0.00 | 0.00 | 0.00 | 39 | 1002.7 |
| 20260504181103 | 64 | 323 | 12.2 | 18.2 | 0.00 | 0.00 | 0.00 | 38 | 1002.7 |
| 20260504180604 | 64 | 334 | 10.4 | 20.9 | 0.00 | 0.00 | 0.00 | 37 | 1002.7 |
| 20260504175603 | 64 | 321 | 14.8 | 22.6 | 0.00 | 0.00 | 0.00 | 39 | 1002.4 |
| 20260504175103 | 64 | 313 | 8.7 | 17.4 | 0.00 | 0.00 | 0.00 | 41 | 1002.4 |
| 20260504174603 | 63 | 330 | 10.4 | 15.6 | 0.00 | 0.00 | 0.00 | 41 | 1002.4 |
| 20260504174102 | 63 | 334 | 11.3 | 17.4 | 0.00 | 0.00 | 0.00 | 41 | 1002.4 |
| 20260504173603 | 63 | 328 | 13.9 | 19.1 | 0.00 | 0.00 | 0.00 | 40 | 1002.4 |
| 20260504173103 | 63 | 310 | 12.2 | 20.0 | 0.00 | 0.00 | 0.00 | 40 | 1002.4 |
| 20260504172603 | 63 | 327 | 8.7 | 13.9 | 0.00 | 0.00 | 0.00 | 42 | 1002.4 |
| 20260504172103 | 63 | 316 | 12.2 | 17.4 | 0.00 | 0.00 | 0.00 | 41 | 1002.4 |
| 20260504171103 | 63 | 347 | 10.4 | 15.6 | 0.00 | 0.00 | 0.00 | 40 | 1002.4 |
| 20260504170603 | 63 | 340 | 10.4 | 19.1 | 0.00 | 0.00 | 0.00 | 40 | 1002.4 |
| 20260504151103 | 61 | 9 | 11.3 | 19.1 | 0.00 | 0.00 | 0.00 | 50 | 1001.0 |
| 20260504150603 | 61 | 352 | 10.4 | 17.4 | 0.00 | 0.00 | 0.00 | 52 | 1001.0 |
| 20260504140603 | 60 | 321 | 11.3 | 20.9 | 0.00 | 0.00 | 0.00 | 56 | 1001.0 |
| 20260504130603 | 60 | 259 | 3.5 | 8.7 | 0.00 | 0.00 | 0.00 | 54 | 1000.0 |
| 20260504120103 | 56 | 216 | 1.7 | 7.0 | 0.00 | 0.00 | 0.00 | 58 | 1000.7 |
| 20260504110604 | 54 | 216 | 0.9 | 5.2 | 0.00 | 0.00 | 0.00 | 60 | 1000.7 |
| 20260504100603 | 54 | 202 | 2.6 | 5.2 | 0.00 | 0.00 | 0.00 | 60 | 1001.4 |
| 20260504100103 | 54 | 207 | 1.7 | 5.2 | 0.00 | 0.00 | 0.00 | 59 | 1001.7 |
| 20260504081103 | 55 | 195 | 1.7 | 7.0 | 0.00 | 0.00 | 0.00 | 57 | 1002.7 |
| 20260504080603 | 55 | 186 | 2.6 | 4.3 | 0.00 | 0.00 | 0.00 | 57 | 1002.7 |
| 20260504050603 | 56 | 197 | 0.9 | 1.7 | 0.00 | 0.00 | 0.00 | 54 | 1004.7 |
| 20260504050103 | 56 | 197 | 0.0 | 0.9 | 0.00 | 0.00 | 0.00 | 53 | 1005.8 |
| 20260504045603 | 56 | 197 | 0.0 | 1.7 | 0.00 | 0.00 | 0.00 | 53 | 1005.8 |
| 20260504045103 | 57 | 196 | 0.0 | 1.7 | 0.00 | 0.00 | 0.00 | 52 | 1005.8 |
| 20260504044604 | 57 | 196 | 0.9 | 1.7 | 0.00 | 0.00 | 0.00 | 52 | 1005.8 |
| 20260504043603 | 57 | 196 | 0.0 | 1.7 | 0.00 | 0.00 | 0.00 | 52 | 1005.8 |
| 20260504043103 | 57 | 197 | 0.0 | 1.7 | 0.00 | 0.00 | 0.00 | 52 | 1005.8 |
| 20260504042603 | 57 | 197 | 0.0 | 0.9 | 0.00 | 0.00 | 0.00 | 51 | 1005.8 |
| 20260504042104 | 57 | 197 | 0.9 | 1.7 | 0.00 | 0.00 | 0.00 | 51 | 1005.8 |
| 20260504041603 | 58 | 197 | 1.7 | 2.6 | 0.00 | 0.00 | 0.00 | 51 | 1005.8 |
| 20260504041103 | 58 | 197 | 0.9 | 2.6 | 0.00 | 0.00 | 0.00 | 51 | 1005.8 |